Regional Weather Roundup
Issued by NWS

Home | Current Version | Previous Version | Text Only | Print | Product List | Glossary On
Versions: 1 2 3 4 5 6 7 8 9 10 11 12 13 14 15 16 17 18 19 20 21 22 23 24 25 26 27 28 29 30 31 32 33 34 35 36 37 38 39 40 41 42 43 44 45 46 47 48 49 50
000
ASCA44 KEWX 231720
RWRMX

LATIN AMERICA AND CARIBBEAN REGIONAL WEATHER ROUNDUP
NATIONAL WEATHER SERVICE AUSTIN/SAN ANTONIO TX
1100 AM CST THU FEB 23 2017

NOTE: "FAIR" INDICATED FEW OR NO CLOUDS BELOW 12,000 FEET WITH NO
SIGNIFICANT WEATHER AND/OR OBSTRUCTIONS TO VISIBILITY.

BAJA CALIFORNIA

CITY           SKY/WX    TMP DP  RH WIND       PRES   REMARKS
LORETO         SUNNY     75  55  50 NE12      29.91R
LA PAZ         SUNNY     70  57  64 SW9       29.93S
MEXICALI       SUNNY     57  32  38 NW8       30.02S
S.J. DEL CABO  SUNNY     73  54  49 E9        29.93R
TIJUANA        PTSUNNY   54  34  47 N7        30.11S

NORTHWESTERN MEXICO

CITY           SKY/WX    TMP DP  RH WIND       PRES   REMARKS
CULIACAN       MOSUNNY   70  61  73 SE5       29.93S
DURANGO        SUNNY     64  19  17 S7        30.16F
GUAYMAS        SUNNY     72  59  64 CALM      29.88R
HERMOSILLO     SUNNY     70  48  46 NW6       29.93R
CD. JUAREZ     SUNNY     68  39  34 W14       29.74S
LOS MOCHIS     MOSUNNY   70  59  68 SE9       29.93R
OBREGON        CLOUDY    64  61  88 S6        29.91R FOG

NORTHEASTERN MEXICO

CITY           SKY/WX    TMP DP  RH WIND       PRES   REMARKS
CHIHUAHUA      SUNNY     72  25  17 S13       29.95F
MATAMOROS      SUNNY     84  55  37 S15       29.75F
MONCLOVA       SUNNY     88  25  10 CALM      29.78
MONTERREY      SUNNY     86  19   8 W7        29.74F
NUEVO LAREDO   SUNNY     82  45  26 S3        29.70S
PIEDRAS NEGRAS SUNNY     79  46  31 NW3       29.70F
REYNOSA        SUNNY     84  34  16 SE9       29.72F
SALTILLO         N/A    N/A N/A N/A MISG        N/A
TORREON        SUNNY     70  18  13 SE7       29.99S
CD. VICTORIA   SUNNY     88  34  14 S13       29.77F

WESTERN MEXICO

CITY           SKY/WX    TMP DP  RH WIND       PRES   REMARKS
AGUASCALIENTES SUNNY     66  34  30 W5        30.21S
COLIMA         SUNNY     79  46  31 SE7       30.02S
DEL BAJIO      SUNNY     68  39  34 CALM      30.25S
GUADALAJARA    SUNNY     72  41  33 CALM      30.16S
MANZANILLO     SUNNY     79  68  69 CALM      29.91R
MAZATLAN       MOSUNNY   73  64  73 S3        29.94R
P. VALLARTA    SUNNY     79  66  65 SW8       29.91
URUAPAN        SUNNY     70  50  49 CALM      30.16S
ZACATECAS      SUNNY     66  23  19 SW8       30.21S

CENTRAL MEXICO

CITY           SKY/WX    TMP DP  RH WIND       PRES   REMARKS
CUERNAVACA       N/A    N/A N/A N/A MISG        N/A
MEXICO CITY    SUNNY     68  34  28 NE5       30.25F
MORELIA        SUNNY     63  37  39 SW3       30.20S
POZA RICA      SUNNY     81  57  44 CALM      29.88R
PUEBLA         SUNNY     64  37  36 SE8       30.26F
QUERETARO      SUNNY     68  36  30 NW14      30.24F
S. LUIS POTOSI SUNNY     68  25  19 CALM      30.15F
TAMPICO        SUNNY     79  54  41 W9        29.82S
TOLUCA         SUNNY     61  36  39 SW6       30.33S

SOUTHERN MEXICO

CITY           SKY/WX    TMP DP  RH WIND       PRES   REMARKS
ACAPULCO       SUNNY     81  72  74 W6        29.90F
B. DE HUATULCO SUNNY     82  68  61 SE12      29.93F
OAXACA         SUNNY     73  34  23 CALM      30.16F
P. ESCONDIDO   SUNNY     79  70  73 W12       29.98R
VERACRUZ       SUNNY     84  55  37 S12       29.82F
ZIHUATANEJO    SUNNY     81  70  69 SW6       29.94R

YUCATAN PENINSULA

CITY           SKY/WX    TMP DP  RH WIND       PRES   REMARKS
CAMPECHE       SUNNY     79  64  61 NW12      29.84S
CANCUN         MOSUNNY   79  59  50 W5G17     29.84F
CHETUMAL         N/A    N/A N/A N/A MISG        N/A
CD. DEL CARMEN SUNNY    N/A N/A N/A MISG      29.88F
COZUMEL        SUNNY     79  59  50 N12       29.83F
MERIDA         PTSUNNY   82  63  51 NW14      29.85F
MINATITLAN     SUNNY     79  61  53 S6        29.83F
TAPACHULA      MOSUNNY   90  70  51 SW12      29.86F HX  95
TUX. GUTIERREZ SUNNY     79  43  27 E6        29.94F
VILLAHERMOSA   SUNNY     81  55  41 CALM      29.88F

CENTRAL AMERICA

CITY           SKY/WX    TMP DP  RH WIND       PRES   REMARKS
BELIZE CITY      N/A     82  55  39 W3        29.86F
MANAGUA        MOSUNNY   88  72  58 NW9       29.83S HX  94

CARIBBEAN

CITY           SKY/WX    TMP DP  RH WIND       PRES   REMARKS
ARUBA          MOSUNNY   84  73  70 SE12      29.86F HX  91
CURACAO        MOSUNNY   86  70  58 E13       29.89F HX  90
KINGSTON       PTSUNNY   73  70  88 NE6       29.83F
SAN JUAN       PTSUNNY   81  72  74 E16       29.91F
SANTO DOMINGO  MOSUNNY   84  72  65 S10       29.86F
ST. CROIX      CLOUDY    75  68  78 NE6       29.93
ST. KITTS      MOSUNNY   82  70  65 S10       29.92S
ST. MAARTEN    PTSUNNY   81  72  74 SE8       29.92S
ST. THOMAS     LGT RAIN  75  73  94 S10       29.92  FOG

$$




USA.gov is the U.S. government's official web portal to all federal, state and local government web resources and services.